Location: Ellerstadt
(49.4644°N, 8.2615°E)
Time: 20:31:04
(UTC+00:00)

Vanguard 1 - Pass Details

Date: 14 June 2021
Orbit: 651 x 3832 km, 34.2° (Epoch: 27 July)

Event Time Altitude Azimuth Distance (km) Brightness Sun altitude
Rises 00:32:14 0° 253° (WSW) 7,308 14.2 -15.8°
Reaches altitude 10° 00:38:10 10° 247° (WSW) 5,845 13.6 -15.6°
Maximum altitude 00:52:11 38° 189° (S) 2,789 11.8 -14.9°
Drops below altitude 10° 01:00:25 10° 124° (SE) 3,454 12.7 -14.4°
Sets 01:02:58 0° 116° (ESE) 4,118 13.2 -14.2°
